User: anonymous   Login
Location: Unspecified
(0.0000°N, 0.0000°E)
Time: 00:45:05
(UTC+01:00)
Language:

Cosmos 1833 Rocket - Orbit

View from above orbital plane
View from above orbital plane
View from above satellite
View from above satellite

Ground track
Ground track

The orbit data is extracted from the following two-line orbital elements,

1 17590U 87027B   15085.88368824  .00000145  00000-0  96479-4 0  9991
2 17590 071.0026 062.5158 0002855 115.4685 244.6734 14.16686669448938
Epoch (UTC): 26 March 2015 21:12:30
Eccentricity: 0.0002855
inclination: 71.0026°
perigee height: 834 km
apogee height: 838 km
right ascension of ascending node: 62.5158°
argument of perigee: 115.4685°
revolutions per day: 14.16686669
mean anomaly at epoch: 244.6734°
orbit number at epoch: 44893

The dashed part of the orbit path shows where the satellite is in the earth's shadow,  

DLR